Location: Pine Mountain Observatory
(43.7910°N, 120.9377°W)
Time: 15:39:29
(UTC-07:00)

Explorer 11/Cluster Stage 4 - Pass Details

Date: 01 June 2019
Orbit: 467 x 1260 km, 28.8° (Epoch: 17 June)

Event Time Altitude Azimuth Distance (km) Brightness Sun altitude
Rises 23:54:00 0° 220° (SW) 4,177 - -22.4°
Reaches altitude 10° 23:58:07 10° 203° (SSW) 3,157 - -22.6°
Maximum altitude 00:02:56 17° 165° (SSE) 2,527 - -22.8°
Drops below altitude 10° 00:07:26 10° 127° (SE) 2,904 - -23.0°
Sets 00:10:59 0° 108° (ESE) 3,714 - -23.2°
